Time,TemperatureF,DewpointF,PressureIn,WindDirection,WindDirectionDegrees,WindSpeedMPH,WindSpeedGustMPH,Humidity,HourlyPrecipIn,Conditions,Clouds,dailyrainin,SoftwareType,DateUTC
2013-07-06 00:04:00,73.0,59.7,30.19,ENE,70,3.0,4.0,63,0.00,,,0.00,Wunderground v.1.15,2013-07-05 22:04:00,
2013-07-06 00:10:00,72.8,59.9,30.19,ENE,71,4.0,4.0,64,0.00,,,0.00,Wunderground v.1.15,2013-07-05 22:10:00,
2013-07-06 00:15:00,72.6,60.2,30.19,ENE,71,3.0,3.0,65,0.00,,,0.00,Wunderground v.1.15,2013-07-05 22:15:00,
2013-07-06 00:25:00,72.4,60.4,30.20,ENE,68,3.0,5.0,66,0.00,,,0.00,Wunderground v.1.15,2013-07-05 22:25:00,
2013-07-06 00:36:00,72.0,60.9,30.20,ENE,65,4.0,4.0,68,0.00,,,0.00,Wunderground v.1.15,2013-07-05 22:36:00,
2013-07-06 00:41:00,71.9,60.8,30.20,ENE,65,3.0,4.0,68,0.00,,,0.00,Wunderground v.1.15,2013-07-05 22:41:00,
2013-07-06 00:51:00,71.6,60.9,30.20,ENE,65,2.0,3.0,69,0.00,,,0.00,Wunderground v.1.15,2013-07-05 22:51:00,
2013-07-06 01:05:00,71.1,61.2,30.20,ENE,65,3.0,3.0,71,0.00,,,0.00,Wunderground v.1.15,2013-07-05 23:05:00,
2013-07-06 01:11:00,70.9,61.0,30.19,ENE,65,3.0,3.0,71,0.00,,,0.00,Wunderground v.1.15,2013-07-05 23:11:00,
2013-07-06 01:20:00,70.6,61.1,30.19,ENE,65,2.0,4.0,72,0.00,,,0.00,Wunderground v.1.15,2013-07-05 23:20:00,
2013-07-06 01:25:00,70.5,61.0,30.19,ENE,65,2.0,2.0,72,0.00,,,0.00,Wunderground v.1.15,2013-07-05 23:25:00,
2013-07-06 01:31:00,70.3,60.8,30.19,ENE,65,2.0,2.0,72,0.00,,,0.00,Wunderground v.1.15,2013-07-05 23:31:00,
2013-07-06 01:40:00,70.1,61.0,30.19,ENE,65,0.0,1.0,73,0.00,,,0.00,Wunderground v.1.15,2013-07-05 23:40:00,
2013-07-06 01:50:00,69.9,61.2,30.19,ENE,65,1.0,1.0,74,0.00,,,0.00,Wunderground v.1.15,2013-07-05 23:50:00,
2013-07-06 02:00:00,69.7,61.0,30.19,ENE,65,1.0,1.0,74,0.00,,,0.00,Wunderground v.1.15,2013-07-06 00:00:00,
2013-07-06 02:10:00,69.5,60.8,30.19,ENE,65,0.0,0.0,74,0.00,,,0.00,Wunderground v.1.15,2013-07-06 00:10:00,
2013-07-06 02:15:00,69.5,60.8,30.18,ENE,65,1.0,1.0,74,0.00,,,0.00,Wunderground v.1.15,2013-07-06 00:15:00,
2013-07-06 02:25:00,69.1,60.8,30.18,ENE,65,1.0,2.0,75,0.00,,,0.00,Wunderground v.1.15,2013-07-06 00:25:00,
2013-07-06 02:35:00,69.0,60.7,30.18,ENE,65,1.0,1.0,75,0.00,,,0.00,Wunderground v.1.15,2013-07-06 00:35:00,
2013-07-06 02:40:00,69.0,60.7,30.18,ENE,65,0.0,1.0,75,0.00,,,0.00,Wunderground v.1.15,2013-07-06 00:40:00,
2013-07-06 02:50:00,69.0,61.1,30.18,ENE,65,0.0,0.0,76,0.00,,,0.00,Wunderground v.1.15,2013-07-06 00:50:00,
2013-07-06 03:00:00,69.0,61.1,30.18,ENE,65,1.0,2.0,76,0.00,,,0.00,Wunderground v.1.15,2013-07-06 01:00:00,
2013-07-06 03:10:00,68.7,60.8,30.17,ENE,65,1.0,1.0,76,0.00,,,0.00,Wunderground v.1.15,2013-07-06 01:10:00,
2013-07-06 03:15:00,68.5,60.3,30.18,ENE,65,1.0,2.0,75,0.00,,,0.00,Wunderground v.1.15,2013-07-06 01:15:00,
2013-07-06 03:20:00,68.3,60.4,30.17,ENE,65,2.0,2.0,76,0.00,,,0.00,Wunderground v.1.15,2013-07-06 01:20:00,
2013-07-06 03:35:00,67.9,59.7,30.17,ENE,65,1.0,2.0,75,0.00,,,0.00,Wunderground v.1.15,2013-07-06 01:35:00,
2013-07-06 03:40:00,67.9,60.1,30.17,ENE,65,1.0,2.0,76,0.00,,,0.00,Wunderground v.1.15,2013-07-06 01:40:00,
2013-07-06 03:45:00,67.8,59.6,30.18,ENE,65,1.0,1.0,75,0.00,,,0.00,Wunderground v.1.15,2013-07-06 01:45:00,
2013-07-06 03:55:00,67.3,59.1,30.17,ENE,65,2.0,4.0,75,0.00,,,0.00,Wunderground v.1.15,2013-07-06 01:55:00,
2013-07-06 04:05:00,66.8,59.0,30.17,ENE,65,1.0,1.0,76,0.00,,,0.00,Wunderground v.1.15,2013-07-06 02:05:00,
2013-07-06 04:10:00,66.7,58.9,30.17,ENE,65,1.0,2.0,76,0.00,,,0.00,Wunderground v.1.15,2013-07-06 02:10:00,
2013-07-06 04:20:00,66.8,59.4,30.17,ENE,65,2.0,2.0,77,0.00,,,0.00,Wunderground v.1.15,2013-07-06 02:20:00,
2013-07-06 04:25:00,67.0,59.5,30.17,ENE,65,1.0,1.0,77,0.00,,,0.00,Wunderground v.1.15,2013-07-06 02:25:00,
2013-07-06 04:30:00,67.0,59.5,30.17,ENE,65,0.0,1.0,77,0.00,,,0.00,Wunderground v.1.15,2013-07-06 02:30:00,
2013-07-06 04:40:00,66.8,59.4,30.17,ENE,65,1.0,1.0,77,0.00,,,0.00,Wunderground v.1.15,2013-07-06 02:40:00,
2013-07-06 04:45:00,66.8,59.4,30.17,ENE,65,1.0,1.0,77,0.00,,,0.00,Wunderground v.1.15,2013-07-06 02:45:00,
2013-07-06 04:50:00,66.7,59.3,30.17,ENE,65,0.0,1.0,77,0.00,,,0.00,Wunderground v.1.15,2013-07-06 02:50:00,
2013-07-06 05:00:00,66.7,59.3,30.17,ENE,65,0.0,0.0,77,0.00,,,0.00,Wunderground v.1.15,2013-07-06 03:00:00,
2013-07-06 05:10:00,66.6,59.2,30.17,ENE,65,0.0,0.0,77,0.00,,,0.00,Wunderground v.1.15,2013-07-06 03:10:00,
2013-07-06 05:15:00,66.5,59.1,30.18,ENE,65,0.0,3.0,77,0.00,,,0.00,Wunderground v.1.15,2013-07-06 03:15:00,
2013-07-06 05:20:00,66.5,59.1,30.17,ENE,65,1.0,3.0,77,0.00,,,0.00,Wunderground v.1.15,2013-07-06 03:20:00,
2013-07-06 05:30:00,66.3,58.9,30.18,ENE,65,1.0,2.0,77,0.00,,,0.00,Wunderground v.1.15,2013-07-06 03:30:00,
2013-07-06 05:35:00,66.2,58.8,30.18,ENE,65,1.0,1.0,77,0.00,,,0.00,Wunderground v.1.15,2013-07-06 03:35:00,
2013-07-06 05:40:00,66.2,58.8,30.18,ENE,65,1.0,2.0,77,0.00,,,0.00,Wunderground v.1.15,2013-07-06 03:40:00,
2013-07-06 05:46:00,66.0,58.6,30.18,ENE,65,1.0,2.0,77,0.00,,,0.00,Wunderground v.1.15,2013-07-06 03:46:00,
2013-07-06 05:56:00,65.8,58.4,30.18,ENE,65,0.0,0.0,77,0.00,,,0.00,Wunderground v.1.15,2013-07-06 03:56:00,
2013-07-06 06:05:00,65.7,58.3,30.18,ENE,65,0.0,0.0,77,0.00,,,0.00,Wunderground v.1.15,2013-07-06 04:05:00,
2013-07-06 06:11:00,65.7,58.3,30.18,ENE,65,0.0,3.0,77,0.00,,,0.00,Wunderground v.1.15,2013-07-06 04:11:00,
2013-07-06 06:15:00,65.6,58.2,30.18,ENE,65,0.0,3.0,77,0.00,,,0.00,Wunderground v.1.15,2013-07-06 04:15:00,
2013-07-06 06:21:00,65.5,58.1,30.18,ENE,65,1.0,3.0,77,0.00,,,0.00,Wunderground v.1.15,2013-07-06 04:21:00,
2013-07-06 06:25:00,65.4,58.0,30.18,ENE,65,1.0,1.0,77,0.00,,,0.00,Wunderground v.1.15,2013-07-06 04:25:00,
2013-07-06 06:35:00,65.2,58.2,30.18,ENE,65,1.0,1.0,78,0.00,,,0.00,Wunderground v.1.15,2013-07-06 04:35:00,
2013-07-06 06:41:00,65.1,58.1,30.18,ENE,65,1.0,1.0,78,0.00,,,0.00,Wunderground v.1.15,2013-07-06 04:41:00,
2013-07-06 06:46:00,65.1,58.1,30.18,ENE,65,1.0,1.0,78,0.00,,,0.00,Wunderground v.1.15,2013-07-06 04:46:00,
2013-07-06 06:55:00,65.1,58.1,30.18,ENE,65,1.0,1.0,78,0.00,,,0.00,Wunderground v.1.15,2013-07-06 04:55:00,
2013-07-06 07:01:00,65.1,58.1,30.18,ENE,65,1.0,1.0,78,0.00,,,0.00,Wunderground v.1.15,2013-07-06 05:01:00,
2013-07-06 07:10:00,65.3,58.3,30.18,ENE,65,1.0,1.0,78,0.00,,,0.00,Wunderground v.1.15,2013-07-06 05:10:00,
2013-07-06 07:15:00,65.4,58.4,30.18,ENE,65,1.0,1.0,78,0.00,,,0.00,Wunderground v.1.15,2013-07-06 05:15:00,
2013-07-06 07:20:00,65.5,58.5,30.18,ENE,65,0.0,1.0,78,0.00,,,0.00,Wunderground v.1.15,2013-07-06 05:20:00,
2013-07-06 07:35:00,66.4,59.0,30.18,ENE,65,0.0,3.0,77,0.00,,,0.00,Wunderground v.1.15,2013-07-06 05:35:00,
2013-07-06 07:40:00,66.7,58.9,30.19,ENE,65,2.0,3.0,76,0.00,,,0.00,Wunderground v.1.15,2013-07-06 05:40:00,
2013-07-06 07:50:00,67.4,59.2,30.19,ENE,65,0.0,2.0,75,0.00,,,0.00,Wunderground v.1.15,2013-07-06 05:50:00,
2013-07-06 08:00:00,67.9,59.3,30.19,ENE,65,0.0,2.0,74,0.00,,,0.00,Wunderground v.1.15,2013-07-06 06:00:00,
2013-07-06 08:10:00,68.9,59.9,30.19,ENE,65,1.0,2.0,73,0.00,,,0.00,Wunderground v.1.15,2013-07-06 06:10:00,
2013-07-06 08:15:00,69.6,60.2,30.19,ENE,65,0.0,0.0,72,0.00,,,0.00,Wunderground v.1.15,2013-07-06 06:15:00,
2013-07-06 08:25:00,70.8,60.5,30.19,ENE,65,0.0,0.0,70,0.00,,,0.00,Wunderground v.1.15,2013-07-06 06:25:00,
2013-07-06 08:35:00,71.6,60.9,30.19,ENE,65,2.0,2.0,69,0.00,,,0.00,Wunderground v.1.15,2013-07-06 06:35:00,
2013-07-06 08:40:00,71.8,61.1,30.19,ENE,65,2.0,2.0,69,0.00,,,0.00,Wunderground v.1.15,2013-07-06 06:40:00,
2013-07-06 08:45:00,72.3,62.4,30.19,ENE,65,2.0,2.0,71,0.00,,,0.00,Wunderground v.1.15,2013-07-06 06:45:00,
2013-07-06 08:55:00,72.4,62.5,30.20,ENE,65,2.0,2.0,71,0.00,,,0.00,Wunderground v.1.15,2013-07-06 06:55:00,
2013-07-06 09:05:00,72.8,62.4,30.20,ENE,65,2.0,3.0,70,0.00,,,0.00,Wunderground v.1.15,2013-07-06 07:05:00,
2013-07-06 09:10:00,73.0,62.6,30.20,ENE,65,2.0,3.0,70,0.00,,,0.00,Wunderground v.1.15,2013-07-06 07:10:00,
2013-07-06 09:20:00,73.6,62.8,30.20,ENE,65,2.0,2.0,69,0.00,,,0.00,Wunderground v.1.15,2013-07-06 07:20:00,
2013-07-06 09:30:00,75.1,63.0,30.20,ENE,65,1.0,1.0,66,0.00,,,0.00,Wunderground v.1.15,2013-07-06 07:30:00,
2013-07-06 09:40:00,76.6,63.5,30.20,ENE,65,0.0,1.0,64,0.00,,,0.00,Wunderground v.1.15,2013-07-06 07:40:00,
2013-07-06 09:45:00,76.6,63.5,30.19,ENE,65,0.0,1.0,64,0.00,,,0.00,Wunderground v.1.15,2013-07-06 07:45:00,
2013-07-06 09:50:00,76.2,63.1,30.20,ENE,69,1.0,4.0,64,0.00,,,0.00,Wunderground v.1.15,2013-07-06 07:50:00,
2013-07-06 10:05:00,74.9,63.6,30.20,ENE,71,1.0,2.0,68,0.00,,,0.00,Wunderground v.1.15,2013-07-06 08:05:00,
2013-07-06 10:10:00,74.9,64.0,30.19,East,82,2.0,2.0,69,0.00,,,0.00,Wunderground v.1.15,2013-07-06 08:10:00,
2013-07-06 10:15:00,74.8,63.9,30.19,East,82,2.0,2.0,69,0.00,,,0.00,Wunderground v.1.15,2013-07-06 08:15:00,
2013-07-06 10:24:00,75.1,64.6,30.19,East,83,2.0,4.0,70,0.00,,,0.00,Wunderground v.1.15,2013-07-06 08:24:00,
2013-07-06 10:35:00,75.3,64.0,30.19,South,185,3.0,3.0,68,0.00,,,0.00,Wunderground v.1.15,2013-07-06 08:35:00,
2013-07-06 10:41:00,75.5,62.9,30.19,SSW,192,3.0,4.0,65,0.00,,,0.00,Wunderground v.1.15,2013-07-06 08:41:00,
2013-07-06 10:46:00,75.5,62.9,30.20,SSW,196,3.0,7.0,65,0.00,,,0.00,Wunderground v.1.15,2013-07-06 08:46:00,
2013-07-06 10:51:00,75.4,62.8,30.20,SSW,199,4.0,7.0,65,0.00,,,0.00,Wunderground v.1.15,2013-07-06 08:51:00,
2013-07-06 11:01:00,75.8,63.6,30.20,SSW,195,3.0,3.0,66,0.00,,,0.00,Wunderground v.1.15,2013-07-06 09:01:00,
2013-07-06 11:10:00,75.7,64.0,30.20,SSW,200,4.0,4.0,67,0.00,,,0.00,Wunderground v.1.15,2013-07-06 09:10:00,
2013-07-06 11:15:00,75.6,64.3,30.20,North,360,4.0,6.0,68,0.00,,,0.00,Wunderground v.1.15,2013-07-06 09:15:00,
2013-07-06 11:21:00,75.6,64.7,30.20,SSW,202,4.0,4.0,69,0.00,,,0.00,Wunderground v.1.15,2013-07-06 09:21:00,
2013-07-06 11:35:00,75.9,64.6,30.20,SSW,200,3.0,5.0,68,0.00,,,0.00,Wunderground v.1.15,2013-07-06 09:35:00,
2013-07-06 11:41:00,75.6,65.1,30.20,South,186,4.0,5.0,70,0.00,,,0.00,Wunderground v.1.15,2013-07-06 09:41:00,
2013-07-06 11:50:00,75.7,65.6,30.20,SSW,197,4.0,5.0,71,0.00,,,0.00,Wunderground v.1.15,2013-07-06 09:50:00,
2013-07-06 11:55:00,75.5,65.8,30.20,SSW,203,4.0,7.0,72,0.00,,,0.00,Wunderground v.1.15,2013-07-06 09:55:00,
2013-07-06 12:05:00,75.7,66.4,30.20,SW,215,5.0,5.0,73,0.00,,,0.00,Wunderground v.1.15,2013-07-06 10:05:00,
2013-07-06 12:10:00,75.7,66.4,30.20,SSW,205,5.0,5.0,73,0.00,,,0.00,Wunderground v.1.15,2013-07-06 10:10:00,
2013-07-06 12:15:00,75.5,66.6,30.20,SSW,198,5.0,6.0,74,0.00,,,0.00,Wunderground v.1.15,2013-07-06 10:15:00,
2013-07-06 12:20:00,75.5,66.6,30.20,SSW,198,6.0,6.0,74,0.00,,,0.00,Wunderground v.1.15,2013-07-06 10:20:00,
2013-07-06 12:35:00,75.6,67.1,30.20,SW,225,6.0,6.0,75,0.00,,,0.00,Wunderground v.1.15,2013-07-06 10:35:00,
2013-07-06 12:40:00,75.6,67.5,30.20,SSW,196,7.0,7.0,76,0.00,,,0.00,Wunderground v.1.15,2013-07-06 10:40:00,
2013-07-06 12:50:00,75.9,67.4,30.20,South,181,5.0,5.0,75,0.00,,,0.00,Wunderground v.1.15,2013-07-06 10:50:00,
2013-07-06 13:05:00,76.2,67.7,30.20,SSW,199,5.0,5.0,75,0.00,,,0.00,Wunderground v.1.15,2013-07-06 11:05:00,
2013-07-06 13:10:00,76.6,68.1,30.20,SSW,207,4.0,6.0,75,0.00,,,0.00,Wunderground v.1.15,2013-07-06 11:10:00,
2013-07-06 13:15:00,76.4,67.5,30.20,South,182,5.0,9.0,74,0.00,,,0.00,Wunderground v.1.15,2013-07-06 11:15:00,
2013-07-06 13:25:00,76.7,68.2,30.20,SW,214,6.0,6.0,75,0.00,,,0.00,Wunderground v.1.15,2013-07-06 11:25:00,
2013-07-06 13:30:00,76.7,67.8,30.20,SSW,196,6.0,7.0,74,0.00,,,0.00,Wunderground v.1.15,2013-07-06 11:30:00,
2013-07-06 13:40:00,76.8,67.5,30.20,South,186,7.0,8.0,73,0.00,,,0.00,Wunderground v.1.15,2013-07-06 11:40:00,
2013-07-06 13:50:00,77.7,67.5,30.19,SSW,203,6.0,7.0,71,0.00,,,0.00,Wunderground v.1.15,2013-07-06 11:50:00,
2013-07-06 14:00:00,77.5,66.5,30.19,SW,218,6.0,6.0,69,0.00,,,0.00,Wunderground v.1.15,2013-07-06 12:00:00,
2013-07-06 14:10:00,77.5,65.7,30.19,SSE,159,7.0,7.0,67,0.00,,,0.00,Wunderground v.1.15,2013-07-06 12:10:00,
2013-07-06 14:20:00,78.1,66.2,30.19,SSW,211,6.0,6.0,67,0.00,,,0.00,Wunderground v.1.15,2013-07-06 12:20:00,
2013-07-06 14:35:00,78.0,66.2,30.18,SSE,160,7.0,12.0,67,0.00,,,0.00,Wunderground v.1.15,2013-07-06 12:35:00,
2013-07-06 14:40:00,78.0,66.6,30.18,South,178,7.0,12.0,68,0.00,,,0.00,Wunderground v.1.15,2013-07-06 12:40:00,
2013-07-06 14:50:00,77.9,65.6,30.18,SSW,212,7.0,9.0,66,0.00,,,0.00,Wunderground v.1.15,2013-07-06 12:50:00,
2013-07-06 14:55:00,78.0,65.3,30.18,SW,226,7.0,7.0,65,0.00,,,0.00,Wunderground v.1.15,2013-07-06 12:55:00,
2013-07-06 15:04:00,78.5,65.3,30.18,South,185,6.0,8.0,64,0.00,,,0.00,Wunderground v.1.15,2013-07-06 13:04:00,
2013-07-06 15:10:00,78.7,64.6,30.18,SW,235,7.0,8.0,62,0.00,,,0.00,Wunderground v.1.15,2013-07-06 13:10:00,
2013-07-06 15:15:00,79.0,64.9,30.18,SSW,195,6.0,6.0,62,0.00,,,0.00,Wunderground v.1.15,2013-07-06 13:15:00,
2013-07-06 15:25:00,79.1,65.0,30.18,South,171,6.0,7.0,62,0.00,,,0.00,Wunderground v.1.15,2013-07-06 13:25:00,
2013-07-06 15:30:00,78.9,65.7,30.18,SW,228,7.0,7.0,64,0.00,,,0.00,Wunderground v.1.15,2013-07-06 13:30:00,
2013-07-06 15:35:00,78.8,65.6,30.17,SW,217,7.0,7.0,64,0.00,,,0.00,Wunderground v.1.15,2013-07-06 13:35:00,
2013-07-06 15:41:00,78.8,67.3,30.17,South,169,7.0,9.0,68,0.00,,,0.00,Wunderground v.1.15,2013-07-06 13:41:00,
2013-07-06 15:50:00,78.9,66.6,30.17,WSW,237,6.0,9.0,66,0.00,,,0.00,Wunderground v.1.15,2013-07-06 13:50:00,
2013-07-06 15:55:00,78.8,66.5,30.17,South,189,7.0,8.0,66,0.00,,,0.00,Wunderground v.1.15,2013-07-06 13:55:00,
2013-07-06 16:05:00,79.4,67.5,30.17,South,169,5.0,5.0,67,0.00,,,0.00,Wunderground v.1.15,2013-07-06 14:05:00,
2013-07-06 16:10:00,79.6,67.7,30.17,SSW,209,4.0,5.0,67,0.00,,,0.00,Wunderground v.1.15,2013-07-06 14:10:00,
2013-07-06 16:16:00,79.6,66.8,30.17,SSE,158,4.0,4.0,65,0.00,,,0.00,Wunderground v.1.15,2013-07-06 14:16:00,
2013-07-06 16:25:00,80.2,67.4,30.17,SSE,167,3.0,4.0,65,0.00,,,0.00,Wunderground v.1.15,2013-07-06 14:25:00,
2013-07-06 16:35:00,80.2,68.2,30.17,SW,215,4.0,4.0,67,0.00,,,0.00,Wunderground v.1.15,2013-07-06 14:35:00,
2013-07-06 16:40:00,80.0,67.6,30.17,SSW,207,4.0,4.0,66,0.00,,,0.00,Wunderground v.1.15,2013-07-06 14:40:00,
2013-07-06 16:45:00,80.0,68.1,30.17,SW,216,4.0,4.0,67,0.00,,,0.00,Wunderground v.1.15,2013-07-06 14:45:00,
2013-07-06 16:55:00,79.9,68.4,30.17,SSE,167,4.0,5.0,68,0.00,,,0.00,Wunderground v.1.15,2013-07-06 14:55:00,
2013-07-06 17:05:00,79.1,66.8,30.17,SSW,210,6.0,8.0,66,0.00,,,0.00,Wunderground v.1.15,2013-07-06 15:05:00,
2013-07-06 17:10:00,78.9,65.7,30.16,SSW,209,6.0,8.0,64,0.00,,,0.00,Wunderground v.1.15,2013-07-06 15:10:00,
2013-07-06 17:15:00,79.3,66.5,30.16,SSW,195,6.0,6.0,65,0.00,,,0.00,Wunderground v.1.15,2013-07-06 15:15:00,
2013-07-06 17:26:00,79.9,66.2,30.16,SW,225,5.0,8.0,63,0.00,,,0.00,Wunderground v.1.15,2013-07-06 15:26:00,
2013-07-06 17:31:00,80.1,66.4,30.16,SSW,204,5.0,8.0,63,0.00,,,0.00,Wunderground v.1.15,2013-07-06 15:31:00,
2013-07-06 17:40:00,80.5,66.3,30.16,SSW,192,4.0,8.0,62,0.00,,,0.00,Wunderground v.1.15,2013-07-06 15:40:00,
2013-07-06 17:45:00,80.3,65.6,30.16,SW,217,4.0,7.0,61,0.00,,,0.00,Wunderground v.1.15,2013-07-06 15:45:00,
2013-07-06 17:55:00,80.3,66.1,30.16,SSW,196,5.0,5.0,62,0.00,,,0.00,Wunderground v.1.15,2013-07-06 15:55:00,
2013-07-06 18:05:00,80.3,66.6,30.16,South,190,5.0,5.0,63,0.00,,,0.00,Wunderground v.1.15,2013-07-06 16:05:00,
2013-07-06 18:10:00,80.3,65.6,30.16,SSW,202,5.0,5.0,61,0.00,,,0.00,Wunderground v.1.15,2013-07-06 16:10:00,
2013-07-06 18:20:00,80.8,66.1,30.16,SSW,202,4.0,7.0,61,0.00,,,0.00,Wunderground v.1.15,2013-07-06 16:20:00,
2013-07-06 18:40:00,80.7,65.5,30.15,SSW,207,3.0,6.0,60,0.00,,,0.00,Wunderground v.1.15,2013-07-06 16:40:00,
2013-07-06 18:45:00,80.7,65.0,30.15,SSW,202,3.0,5.0,59,0.00,,,0.00,Wunderground v.1.15,2013-07-06 16:45:00,
2013-07-06 18:55:00,81.0,65.3,30.15,SSW,196,2.0,2.0,59,0.00,,,0.00,Wunderground v.1.15,2013-07-06 16:55:00,
2013-07-06 19:10:00,81.6,64.9,30.15,SSW,195,2.0,3.0,57,0.00,,,0.00,Wunderground v.1.15,2013-07-06 17:10:00,
2013-07-06 19:15:00,81.5,65.3,30.15,SSW,195,1.0,3.0,58,0.00,,,0.00,Wunderground v.1.15,2013-07-06 17:15:00,
2013-07-06 19:25:00,81.8,64.6,30.15,South,170,1.0,6.0,56,0.00,,,0.00,Wunderground v.1.15,2013-07-06 17:25:00,
2013-07-06 19:30:00,81.8,65.1,30.15,South,171,1.0,4.0,57,0.00,,,0.00,Wunderground v.1.15,2013-07-06 17:30:00,
2013-07-06 19:40:00,81.8,65.6,30.15,South,171,1.0,2.0,58,0.00,,,0.00,Wunderground v.1.15,2013-07-06 17:40:00,
2013-07-06 19:50:00,81.6,65.4,30.15,South,178,1.0,1.0,58,0.00,,,0.00,Wunderground v.1.15,2013-07-06 17:50:00,
2013-07-06 20:10:00,81.1,64.9,30.15,SSE,163,2.0,2.0,58,0.00,,,0.00,Wunderground v.1.15,2013-07-06 18:10:00,
2013-07-06 20:20:00,80.4,65.7,30.15,SSE,168,2.0,5.0,61,0.00,,,0.00,Wunderground v.1.15,2013-07-06 18:20:00,
2013-07-06 20:34:00,80.0,66.7,30.15,South,169,1.0,1.0,64,0.00,,,0.00,Wunderground v.1.15,2013-07-06 18:34:00,
2013-07-06 20:50:00,79.4,67.5,30.15,SSE,154,1.0,1.0,67,0.00,,,0.00,Wunderground v.1.15,2013-07-06 18:50:00,
2013-07-06 21:00:00,79.0,67.1,30.15,SSE,154,1.0,1.0,67,0.00,,,0.00,Wunderground v.1.15,2013-07-06 19:00:00,
2013-07-06 21:24:00,78.0,66.2,30.16,SSE,154,0.0,0.0,67,0.00,,,0.00,Wunderground v.1.15,2013-07-06 19:24:00,
2013-07-06 21:41:00,77.5,66.5,30.16,SSE,154,0.0,0.0,69,0.00,,,0.00,Wunderground v.1.15,2013-07-06 19:41:00,
2013-07-06 21:46:00,77.4,66.4,30.16,SSE,154,0.0,0.0,69,0.00,,,0.00,Wunderground v.1.15,2013-07-06 19:46:00,
2013-07-06 21:55:00,77.1,66.6,30.16,SSE,154,0.0,0.0,70,0.00,,,0.00,Wunderground v.1.15,2013-07-06 19:55:00,
2013-07-06 22:01:00,76.9,66.0,30.16,SSE,154,0.0,0.0,69,0.00,,,0.00,Wunderground v.1.15,2013-07-06 20:01:00,
2013-07-06 22:10:00,76.6,64.4,30.17,SSE,154,0.0,0.0,66,0.00,,,0.00,Wunderground v.1.15,2013-07-06 20:10:00,
2013-07-06 22:16:00,76.6,64.4,30.17,SSE,154,0.0,0.0,66,0.00,,,0.00,Wunderground v.1.15,2013-07-06 20:16:00,
2013-07-06 22:25:00,76.6,65.2,30.17,SSE,154,0.0,0.0,68,0.00,,,0.00,Wunderground v.1.15,2013-07-06 20:25:00,
2013-07-06 22:45:00,76.4,65.5,30.17,SSE,154,0.0,0.0,69,0.00,,,0.00,Wunderground v.1.15,2013-07-06 20:45:00,
2013-07-06 23:05:00,75.9,64.2,30.18,SSE,154,0.0,0.0,67,0.00,,,0.00,Wunderground v.1.15,2013-07-06 21:05:00,
2013-07-06 23:10:00,75.8,64.1,30.18,SSE,154,0.0,0.0,67,0.00,,,0.00,Wunderground v.1.15,2013-07-06 21:10:00,
2013-07-06 23:35:00,75.1,62.5,30.18,SSE,154,0.0,0.0,65,0.00,,,0.00,Wunderground v.1.15,2013-07-06 21:35:00,
2013-07-06 23:45:00,75.0,62.4,30.18,SSE,154,0.0,0.0,65,0.00,,,0.00,Wunderground v.1.15,2013-07-06 21:45:00,